Naples, Italy

6:29 AM CEST on May 25, 2017 (GMT +0200)
Capodichino Mil

Weather History for LIRN - November, 2012

Change the Weather History Date:

Thursday, November 8, 2012

  Actual Average Record
Temperature  
Mean Temperature 58 °F -  
Max Temperature 66 °F 61 °F 76 °F (2015)
Min Temperature 50 °F 45 °F 42 °F (2004)
Degree Days  
Heating Degree Days 7    
Growing Degree Days 8 (Base 50)    
Moisture  
Dew Point 44 °F    
Average Humidity 63    
Maximum Humidity 87    
Minimum Humidity 45    
Precipitation  
Precipitation 0.00 in 0.20 in - ()
Sea Level Pressure  
Sea Level Pressure 30.25 in    
Wind  
Wind Speed 5 mph ()    
Max Wind Speed 8 mph    
Max Gust Speed -    
Visibility 5.0 miles    
Events      
Averages and records for this station are not official NWS values.
T = Trace of Precipitation, MM = Missing Value Source: Averaged Metar Reports

Daily Weather History Graph

Daily Weather History Graph

Search for Another Location

Airport or City:

Trip Planner

Search our weather history database for the weather conditions in past years. The results will help you decide how hot, cold, wet, or windy it might be!

Date:

Astronomy

Nov. 08, 2012 Rise Set
Actual Time 6:41 AM CET 4:50 PM CET
Civil Twilight 6:12 AM CET 5:19 PM CET
Nautical Twilight 5:40 AM CET 5:52 PM CET
Astronomical Twilight 5:07 AM CET 6:24 PM CET
Moon 12:16 AM CET (11/8) 1:24 PM CET (11/8)
Length of Visible Light 11h 06m
Length of Day
10h 08m
Waning Crescent, 35% of the Moon is Illuminated
Nov 8
Waning Crescent
Nov 13
New
Nov 20
First Quarter
Nov 28
Full
Dec 6
Last Quarter

Hourly Weather History & Observations

Time (CET) Temp. Dew Point Humidity Pressure Visibility Wind Dir Wind Speed Gust Speed Precip Events Conditions
12:20 AM 53.6 °F 41.0 °F 62% 30.30 in - NNW 5.8 mph - N/A   Clear
12:50 AM 51.8 °F 41.0 °F 67% 30.30 in - WNW 8.1 mph - N/A   Clear
1:20 AM 51.8 °F 41.0 °F 67% 30.30 in - NNW 5.8 mph - N/A   Clear
1:50 AM 53.6 °F 41.0 °F 62% 30.30 in - North 8.1 mph - N/A   Clear
2:20 AM 53.6 °F 41.0 °F 62% 30.30 in - North 6.9 mph - N/A   Clear
2:50 AM 53.6 °F 41.0 °F 62% 30.30 in - North 6.9 mph - N/A   Clear
3:20 AM 53.6 °F 41.0 °F 62% 30.30 in - North 6.9 mph - N/A   Clear
3:50 AM 50.0 °F 39.2 °F 66% 30.30 in - NW 4.6 mph - N/A   Clear
4:20 AM 50.0 °F 39.2 °F 66% 30.30 in - North 4.6 mph - N/A   Clear
4:50 AM 50.0 °F 41.0 °F 71% 30.27 in - Variable 2.3 mph - N/A   Clear
5:50 AM 51.8 °F 39.2 °F 62% 30.30 in - NNW 8.1 mph - N/A   Clear
6:20 AM 51.8 °F 39.2 °F 62% 30.30 in - North 8.1 mph - N/A   Clear
6:50 AM 50.0 °F 39.2 °F 66% 30.30 in - North 5.8 mph - N/A   Clear
7:20 AM 51.8 °F 41.0 °F 67% 30.30 in - North 4.6 mph - N/A   Clear
7:50 AM 53.6 °F 41.0 °F 62% 30.30 in - North 5.8 mph - N/A   Clear
8:20 AM 55.4 °F 41.0 °F 58% 30.30 in - North 4.6 mph - N/A   Clear
8:50 AM 57.2 °F 42.8 °F 59% 30.30 in - NNE 5.8 mph - N/A   Clear
9:20 AM 59.0 °F 42.8 °F 55% 30.30 in - NNW 3.5 mph - N/A   Clear
9:50 AM 59.0 °F 42.8 °F 55% 30.30 in - North 3.5 mph - N/A   Clear
10:20 AM 60.8 °F 42.8 °F 52% 30.30 in - North 4.6 mph - N/A   Clear
10:50 AM 62.6 °F 42.8 °F 48% 30.30 in - NNW 5.8 mph - N/A   Clear
11:50 AM 64.4 °F 42.8 °F 45% 30.27 in - NNE 3.5 mph - N/A   Clear
12:20 PM 64.4 °F 44.6 °F 49% 30.27 in - North 4.6 mph - N/A   Clear
12:50 PM 64.4 °F 44.6 °F 49% 30.24 in - Variable 3.5 mph - N/A   Clear
1:20 PM 64.4 °F 44.6 °F 49% 30.24 in - WNW 5.8 mph - N/A   Clear
1:50 PM 64.4 °F 44.6 °F 49% 30.24 in - NNW 4.6 mph - N/A   Clear
2:20 PM 66.2 °F 44.6 °F 46% 30.21 in - NW 5.8 mph - N/A   Clear
2:50 PM 64.4 °F 44.6 °F 49% 30.21 in - North 4.6 mph - N/A   Clear
3:20 PM 64.4 °F 44.6 °F 49% 30.21 in - NW 3.5 mph - N/A   Clear
3:50 PM 64.4 °F 44.6 °F 49% 30.21 in - NNW 4.6 mph - N/A   Clear
4:20 PM 62.6 °F 46.4 °F 55% 30.21 in - NW 4.6 mph - N/A   Clear
5:20 PM 59.0 °F 46.4 °F 63% 30.21 in - WNW 5.8 mph - N/A   Clear
5:50 PM 59.0 °F 48.2 °F 67% 30.21 in - WNW 5.8 mph - N/A   Clear
6:20 PM 59.0 °F 48.2 °F 67% 30.21 in - WNW 5.8 mph - N/A   Clear
6:50 PM 57.2 °F 48.2 °F 72% 30.21 in - West 3.5 mph - N/A   Clear
7:20 PM 57.2 °F 48.2 °F 72% 30.21 in - ENE 3.5 mph - N/A   Clear
8:20 PM 53.6 °F 48.2 °F 82% 30.21 in - Variable 2.3 mph - N/A   Clear
8:50 PM 53.6 °F 48.2 °F 82% 30.21 in 5.0 mi NE 2.3 mph - N/A   Unknown
9:20 PM 53.6 °F 46.4 °F 77% 30.21 in 5.0 mi Variable 1.2 mph - N/A   Unknown
9:50 PM 53.6 °F 46.4 °F 77% 30.21 in - Variable 1.2 mph - N/A   Clear
10:20 PM 51.8 °F 46.4 °F 82% 30.18 in - Calm Calm - N/A   Clear
10:50 PM 51.8 °F 46.4 °F 82% 30.18 in - West 2.3 mph - N/A   Clear
11:20 PM 51.8 °F 46.4 °F 82% 30.18 in - Variable 1.2 mph - N/A   Clear
11:50 PM 50.0 °F 46.4 °F 87% 30.18 in - NNW 3.5 mph - N/A   Clear